7 * 24
多渠道服务支持
IRIDIUM 154 是 IRIDIUM 卫星通信系统的一部分,属于由 66 颗低轨卫星组成的星座,用于提供全球范围的语音和数据通信服务。该卫星运行在约 780 公里的高度,采用极地轨道,确保覆盖地球所有地区。IRIDIUM 系统广泛应用于航空、航海、军事和应急通信等领域,具有抗干扰、低延迟和高可靠性的特点。IRIDIUM 154 于 2017 年发射,是第二代 IRIDIUM NEXT 卫星之一,提升了通信容量和系统性能。
美国
(US)
| 数据来源 | 国际轨道数据 |
| 星历时间: | 2025-10-28T22:24:10+0800 17小时前 查看轨道信息 |
| 半长轴: | 7155.803km |
| 偏心率: | 0.0002087 |
| 轨道倾角: | 86.399° |
| 近地点辐角 | 86.881° |
| 升交点赤经 | 153.617° |
| 平近点角 | 273.263° |
| 近地点: | 776.174km |
| 远地点: | 779.162km |
| 周期: | 100.403分钟 |
| 每日圈数: | 14.342181 |